#timestamp,LO_Frequency,Hit,StdDev 
1565049615.4,286046996.9,N
1565049635.3,286046996.7,N
1565049655.1,286046996.9,N
1565049675.9,286046999.0,N
1565049695.7,286046999.2,N
1565049715.5,286046999.1,N
1565049735.4,286046996.9,N
1565049755.2,286046997.0,N
1565049775.0,286046996.5,N
1565049775.9,286046996.5,N
1565049795.8,286046999.2,N
1565049815.6,286046997.0,N
1565049835.5,286046996.5,N
1565049855.3,286046996.6,N
1565049875.1,286046996.8,N
1565049895.9,286046996.5,N
1565049915.0,286046997.0,N
1565049915.9,286046997.0,N
1565049935.8,286046997.5,N
1565049955.6,286046996.8,N
1565049975.5,286046997.4,N
1565049995.3,286046998.0,N
1565050015.1,286046995.6,Y
1565050035.9,286046998.9,P
1565050055.7,286046999.0,N
1565050075.5,286046996.7,P
1565050095.4,286046997.2,N
1565050115.2,286046996.5,Y
1565050135.1,286047000.1,P
1565050136.0,286047000.1,N
1565050155.8,286047000.3,N
1565050175.6,286047000.5,N
1565050195.5,286047000.9,N
1565050215.3,286047000.6,N
1565050235.2,286047000.9,N
1565050255.9,286047000.0,N
1565050275.7,286047000.1,N
1565050295.6,286046999.9,N
1565050315.4,286047000.9,N
1565050335.3,286046998.2,N
1565050355.1,286047000.2,N
1565050356.0,286047000.2,N
1565050375.8,286047002.0,N
1565050395.7,286047000.2,N
1565050415.5,286047001.7,N
1565050435.3,286047002.6,N
1565050455.2,286047002.2,N
1565050475.0,286047000.9,N
1565050475.9,286047000.9,N
1565050495.8,286047000.9,N
1565050515.6,286047001.0,N
1565050535.4,286046999.1,N
1565050555.3,286046998.4,N
1565050575.1,286046999.0,N
1565050595.9,286046998.4,N
1565050615.7,286047000.9,N
1565050635.5,286046999.9,N
1565050655.4,286046999.8,N
1565050675.2,286047001.5,N
1565050695.0,286047000.4,N
1565050695.9,286047000.4,N
1565050715.8,286047000.5,N
1565050735.6,286047000.0,N
1565050755.5,286047000.2,N
1565050775.3,286047002.8,N
1565050795.1,286046998.5,N
1565050815.9,286047000.8,N
1565050835.7,286047001.0,N
1565050855.6,286047000.3,N
1565050875.4,286046999.7,N
1565050895.2,286047001.8,N
1565050915.1,286047011.9,Y
1565050916.0,286047001.8,P
1565050935.8,286047002.2,P
1565050955.7,286047004.3,P
1565050975.5,286047003.5,N
1565050995.3,286047001.4,N
1565051015.2,286047001.3,N
1565051035.0,286047003.5,N
1565051035.9,286047003.5,N
1565051055.7,286047003.2,N
1565051075.6,286047001.7,N
1565051095.4,286047001.9,N
1565051115.3,286047001.7,N
1565051135.1,286047004.2,Y
1565051155.8,286047000.1,P
1565051175.7,286046999.9,N
1565051195.5,286047002.5,N
1565051215.4,286047002.3,N
1565051235.2,286047000.3,N
1565051255.0,286047000.4,N
1565051255.9,286047000.4,N
1565051275.8,286047000.3,N
1565051295.6,286047002.8,N
1565051315.5,286046999.9,N
1565051335.3,286047000.0,N
1565051355.1,286047000.5,N
1565051375.9,286046998.3,N
1565051395.7,286047000.4,N
1565051415.5,286047000.3,N
1565051435.4,286046999.9,N
1565051455.2,286047000.1,N
1565051475.1,286047000.1,N
1565051476.0,286047000.1,N
1565051495.8,286046999.8,N
1565051515.6,286047000.2,N
1565051535.5,286047000.4,N
1565051555.3,286047002.8,N
1565051575.2,286047002.3,N
1565051595.9,286047001.1,N
1565051615.7,286047000.6,N
1565051635.6,286046999.8,N
1565051655.4,286047001.0,N
1565051675.2,286047000.9,N
1565051695.1,286047000.9,N
1565051696.0,286047000.9,N
1565051715.8,286047000.0,N
1565051735.7,286047001.1,N
1565051755.5,286047001.0,N
1565051775.3,286047000.0,N
1565051795.2,286047000.0,N
1565051815.0,286047000.3,N
1565051835.6,286047000.9,N
1565051855.4,286047000.4,N
1565051875.2,286046999.9,N
1565051895.1,286046998.8,N
1565051896.0,286046998.8,N
1565051915.8,286047001.1,N
1565051935.6,286046999.9,N
1565051955.5,286046999.7,N
1565051975.3,286046999.8,N
1565051995.2,286047002.3,N
1565052015.9,286047000.3,N
1565052035.7,286047002.5,N
1565052055.6,286047002.2,N
1565052075.4,286047004.0,Y
1565052095.3,286047000.6,P
1565052115.1,286047001.0,P
1565052116.0,286047001.0,P
1565052135.8,286047000.9,Y
1565052155.7,286047000.9,P
1565052175.5,286047000.7,P
1565052195.4,286047001.0,P
1565052215.2,286047001.1,Y
1565052235.0,286046998.6,P
1565052235.9,286046998.6,N
1565052255.8,286046998.4,N
1565052275.6,286046998.5,N
1565052295.5,286046998.7,N
1565052315.3,286047000.8,N
1565052335.1,286046998.6,N
1565052355.9,286046998.1,N
1565052375.7,286046999.3,N
1565052395.5,286046998.8,N
1565052415.4,286047001.2,N
1565052435.2,286047000.9,N
1565052455.1,286047000.6,N
1565052456.0,286047000.6,N
1565052475.8,286047000.6,N
1565052495.6,286047000.9,N
1565052515.5,286047000.6,N
1565052535.3,286047001.2,N
1565052555.2,286047000.8,N
1565052575.9,286046998.1,N
1565052595.7,286046998.2,N
1565052615.6,286046998.2,N
1565052635.4,286046998.5,N
1565052655.2,286046998.5,N
1565052675.1,286046999.3,N
1565052676.0,286046999.3,N
1565052695.8,286046999.0,N
1565052715.7,286046999.2,N
1565052735.5,286046999.5,N
1565052755.3,286046996.5,Y
1565052775.2,286046998.1,P
1565052795.0,286046999.0,N
1565052795.9,286046999.0,N
1565052815.8,286046999.2,N
1565052835.6,286046998.4,Y
1565052855.4,286046998.5,P
1565052875.3,286046998.6,P
1565052895.1,286046998.2,P
1565052915.9,286046998.5,Y
1565052935.7,286047000.2,P
1565052955.5,286047000.9,N
1565052975.4,286046999.9,N
1565052995.2,286047000.1,N
1565053015.0,286047000.5,N
1565053015.9,286047000.5,N
1565053035.8,286047002.4,Y
1565053055.6,286047002.0,P
1565053075.5,286047002.5,N
1565053095.3,286047001.5,N
1565053115.1,286046999.7,N
1565053135.9,286047001.0,N
1565053155.7,286047000.6,N
1565053175.6,286047000.2,N
1565053195.4,286047000.2,N
